Lid_Strength_Index
4 6 8 7 12 14 16 14 13 11 11 11 10 10 8 9 10 11 8 9 7 6 4 5 1 -0 -1 -1 -1 -1 -1 -1 -1 -1 -1 -1 -1 -1 -1 -1 -1 -2 -2 -1 -1 -1 -1 -2 -2
6 5 5 10 16 18 17 15 14 12 11 10 10 10 9 11 10 10 10 8 8 6 4 4 2 2 1 0 -1 -1 -1 -1 -1 -1 -1 -1 -1 -1 -1 -1 -1 -2 -2 -2 -2 -2 -2 -1 -2
8 5 9 12 17 18 18 14 14 11 11 11 11 9 10 11 11 11 10 9 9 8 5 2 2 4 3 2 0 -1 -1 -1 -1 -1 -1 -1 -1 -1 -1 -1 -1 -2 -2 -2 -2 -2 -2 -2 -2
8 8 11 14 16 15 15 15 13 12 11 11 11 12 10 10 10 11 9 9 9 9 6 2 0 4 4 4 3 1 -1 -2 -1 -1 -1 -1 -1 -1 -1 -1 -1 -2 -2 -2 -2 -2 -2 -2 -2
8 11 15 17 17 16 15 14 14 14 14 13 12 14 12 10 9 9 9 8 8 8 6 4 1 2 4 5 5 3 2 -1 -1 -1 -1 -1 -1 -1 -1 -1 -1 -2 -2 -2 -2 -2 -2 -2 -2
12 13 17 18 17 15 15 14 14 15 15 13 13 15 11 11 10 9 8 8 7 7 6 5 3 1 3 4 5 5 3 2 0 -1 -1 -1 -1 -1 -1 -1 -1 -1 -2 -2 -2 -2 -1 -1 -1
13 16 18 18 17 16 15 14 16 16 16 15 14 15 12 11 9 9 9 8 8 7 7 7 6 5 3 3 4 4 5 3 3 1 -1 -1 -1 -1 -1 -1 -1 -1 -1 -1 -1 -1 -1 -1 -1
12 15 18 19 19 17 16 15 16 16 16 13 14 16 16 12 9 8 9 8 8 8 8 7 7 7 7 5 2 4 4 3 3 3 1 1 1 1 0 0 -0 -1 -1 -1 -1 -1 -1 -1 -1
13 18 19 19 18 17 16 16 15 14 16 14 14 14 11 9 8 9 10 10 9 8 8 8 8 8 7 7 5 4 3 3 3 2 2 2 1 0 0 1 0 -1 -1 -1 -1 -1 -1 -0 -0
15 19 18 17 17 18 16 16 15 15 15 15 14 11 10 9 10 10 11 11 11 10 9 9 9 8 8 7 7 6 4 3 4 3 3 1 0 0 0 1 2 1 1 -0 -1 -1 -0 1 -0
16 17 16 16 15 14 14 15 14 15 15 14 14 12 10 10 10 10 11 11 11 10 10 9 9 9 9 8 8 7 6 5 4 3 3 2 1 0 1 0 1 0 2 -0 -0 -0 -0 0 0
16 14 14 13 12 13 14 13 14 14 13 11 12 11 10 11 10 10 11 11 11 10 10 9 9 9 9 9 8 7 7 6 5 5 2 2 3 1 0 0 0 1 0 1 0 -0 0 1 1
15 14 12 12 12 13 12 14 14 13 12 11 11 10 10 10 11 11 10 10 10 10 10 10 10 9 9 9 8 8 8 7 6 5 4 2 4 4 2 0 0 0 0 0 1 0 1 2 2
14 14 13 12 12 12 13 14 14 13 12 11 10 10 11 11 11 11 11 10 11 10 10 10 10 10 9 9 9 9 8 8 7 6 4 3 2 3 3 3 0 0 0 0 0 1 1 1 2
13 15 14 13 13 13 13 15 15 13 11 12 11 11 11 11 11 11 11 11 11 10 10 10 10 9 10 10 9 8 8 7 7 6 5 4 3 2 3 4 4 0 -0 0 0 0 1 1 2
16 17 19 14 13 13 13 18 13 12 13 12 12 12 12 11 11 11 10 10 10 10 10 9 8 9 9 9 9 9 8 8 7 7 6 5 4 3 4 4 3 2 1 0 0 1 1 2 2
19 24 19 17 13 13 14 17 13 12 12 13 13 13 12 12 11 10 9 10 9 9 9 9 8 9 8 9 9 8 8 7 7 7 6 5 4 3 2 2 2 1 0 1 1 1 1 2 2
23 22 18 18 15 13 15 15 13 12 13 14 14 13 13 11 10 10 10 10 10 10 10 10 9 9 9 8 8 8 8 8 8 6 6 5 5 3 2 1 2 2 1 1 1 1 1 1 2
18 18 19 17 14 16 17 16 15 13 14 15 15 14 13 12 10 10 10 11 11 11 10 10 10 9 9 9 8 8 9 8 7 7 6 5 5 4 3 3 2 0 1 1 1 1 2 2 2
17 21 21 17 15 16 17 17 14 14 14 14 13 13 13 13 12 11 11 11 11 11 11 11 10 10 9 9 8 8 8 7 6 6 6 5 4 4 3 3 2 1 1 1 1 1 2 2 1
18 21 21 18 16 17 18 20 17 14 14 13 12 14 14 13 13 13 12 12 12 12 12 11 11 10 8 7 7 7 7 6 6 6 5 4 4 4 2 2 1 1 1 1 1 1 2 3 3
23 16 16 17 22 26 18 25 18 16 14 12 14 14 14 14 14 13 13 13 13 12 12 12 10 9 8 7 8 8 8 8 7 6 5 4 3 2 2 1 1 2 1 1 1 1 1 2 3
18 15 16 17 26 23 22 26 19 16 15 14 14 14 14 14 14 14 13 13 13 12 13 12 11 10 9 8 8 8 7 6 5 5 5 5 4 3 1 0 1 1 1 1 1 1 1 1 3
15 18 19 20 25 30 25 25 21 18 16 16 15 15 14 14 14 13 13 13 13 13 13 12 11 10 9 8 8 7 6 6 6 6 5 5 4 3 1 1 1 1 1 1 1 1 1 1 2
18 26 30 30 31 28 29 24 20 16 15 15 15 15 15 14 15 15 14 14 14 14 13 12 11 11 10 9 8 7 6 6 6 3 4 4 4 3 2 1 2 2 1 1 1 1 1 1 2
19 24 28 33 31 28 28 26 19 15 14 14 14 15 14 15 15 15 15 14 14 14 14 13 12 12 10 9 8 7 6 7 5 2 2 2 3 3 2 2 2 2 1 1 1 1 1 1 1
21 24 19 29 31 30 27 23 17 15 17 16 16 15 16 15 16 16 15 15 14 14 14 14 13 12 11 10 9 7 6 7 6 2 2 3 3 2 3 3 4 3 3 1 1 2 2 1 1
20 17 26 27 32 34 30 31 22 22 19 17 18 18 17 17 17 16 16 15 14 14 14 14 13 13 12 10 9 8 7 7 7 4 3 3 3 3 3 4 5 5 5 4 4 3 3 2 1
22 24 25 25 24 30 30 25 21 20 20 20 19 17 18 20 18 18 17 16 15 15 15 15 14 13 12 11 10 9 8 7 7 5 4 4 4 5 5 5 5 5 5 5 5 4 4 3 2
18 23 21 26 29 25 24 23 21 21 22 23 18 18 19 21 19 19 17 17 16 16 16 15 14 13 13 12 10 9 8 8 7 7 6 5 5 5 6 6 6 6 6 5 5 5 5 5 2